• Currently

    Reported at Minneapolis, Minneapolis-St. Paul International Airport, MN
    9:53 AM CST MON MAY 29 2017
  • 59°F15°C
  • Overcast
    Overcast
  • Feels Like:59°F15°CDew Point:48°F9°CHumidity:68% Winds:NW 15 mph G 2124 kph G 34
    Pressure:29.8 in1009 hPaVisibility:10.00 miles16090.00 meters
Time Weather Temp Dew Point
Humidity Winds Visibility Pressure Precipitation
1 hr 24 hr
Saturday, May 20
23:53 23:53 Cloudy Cloudy 53°F12°C 32°F0°C 45% ENE 9 mphENE 15 kph 10.0 miles16.1 km 30.21 in1023 hPa 0.00 in0.00 mm --
22:53 22:53 Cloudy Cloudy 53°F12°C 32°F0°C 45% ENE 9 mphENE 15 kph 10.0 miles16.1 km 30.18 in1022 hPa 0.00 in0.00 mm --
21:53 21:53 Cloudy Cloudy 53°F12°C 32°F0°C 45% E 9 mphE 15 kph 10.0 miles16.1 km 30.21 in1023 hPa 0.00 in0.00 mm --
20:53 20:53 Cloudy Cloudy 53°F12°C 30°F-1°C 41% ENE 9 mphENE 15 kph 10.0 miles16.1 km 30.21 in1023 hPa 0.00 in0.00 mm --
19:53 19:53 Cloudy Cloudy 54°F12°C 30°F-1°C 40% E 14 mphE 22 kph 10.0 miles16.1 km 30.21 in1023 hPa 0.00 in0.00 mm --
18:53 18:53 Cloudy Cloudy 54°F12°C 29°F-2°C 38% ENE 15 mphENE 24 kph 10.0 miles16.1 km 30.21 in1023 hPa 0.00 in0.00 mm --
17:53 17:53 Cloudy Cloudy 55°F13°C 31°F-1°C 40% ENE 16 mphENE 26 kph 10.0 miles16.1 km 30.18 in1022 hPa 0.00 in0.00 mm --
16:53 16:53 Cloudy Cloudy 55°F13°C 31°F-1°C 40% E 15 mphE 24 kph 10.0 miles16.1 km 30.21 in1023 hPa 0.00 in0.00 mm --
15:53 15:53 Cloudy Cloudy 54°F12°C 29°F-2°C 38% ENE 15 mphENE 24 kph 10.0 miles16.1 km 30.21 in1023 hPa 0.00 in0.00 mm --
14:53 14:53 Cloudy Cloudy 53°F12°C 29°F-2°C 40% ENE 14 mphENE 22 kph 10.0 miles16.1 km 30.21 in1023 hPa 0.00 in0.00 mm --
13:53 13:53 Cloudy Cloudy 52°F11°C 28°F-2°C 40% E 17 mphE 28 kph 10.0 miles16.1 km 30.24 in1024 hPa 0.00 in0.00 mm --
12:53 12:53 Cloudy Cloudy 52°F11°C 30°F-1°C 43% ENE 13 mphENE 20 kph 10.0 miles16.1 km 30.24 in1024 hPa 0.00 in0.00 mm --
11:53 11:53 Cloudy Cloudy 49°F9°C 30°F-1°C 48% ENE 16 mphENE 26 kph 10.0 miles16.1 km 30.24 in1024 hPa 0.00 in0.00 mm --
10:53 10:53 Cloudy Cloudy 48°F9°C 29°F-2°C 48% ENE 14 mphENE 22 kph 10.0 miles16.1 km 30.24 in1024 hPa 0.00 in0.00 mm --
09:53 09:53 Cloudy Cloudy 47°F8°C 30°F-1°C 52% ENE 10 mphENE 17 kph 10.0 miles16.1 km 30.24 in1024 hPa 0.00 in0.00 mm --
08:53 08:53 Cloudy Cloudy 46°F8°C 31°F-1°C 56% ENE 13 mphENE 20 kph 10.0 miles16.1 km 30.24 in1024 hPa 0.00 in0.00 mm --
07:53 07:53 Cloudy Cloudy 45°F7°C 31°F-1°C 58% E 16 mphE 26 kph 10.0 miles16.1 km 30.24 in1024 hPa 0.00 in0.00 mm --
06:53 06:53 Cloudy Cloudy 44°F7°C 32°F0°C 63% E 13 mphE 20 kph 10.0 miles16.1 km 30.21 in1023 hPa 0.00 in0.00 mm --
05:53 05:53 Cloudy Cloudy 44°F7°C 33°F1°C 65% E 12 mphE 19 kph 10.0 miles16.1 km 30.21 in1023 hPa 0.00 in0.00 mm --
04:53 04:53 Mostly Cloudy Mostly Cloudy 45°F7°C 36°F2°C 71% E 10 mphE 17 kph 10.0 miles16.1 km 30.21 in1023 hPa 0.00 in0.00 mm --
03:53 03:53 Mostly Cloudy Mostly Cloudy 46°F8°C 37°F3°C 71% E 13 mphE 20 kph 10.0 miles16.1 km 30.18 in1022 hPa 0.00 in0.00 mm --
02:53 02:53 Mostly Cloudy Mostly Cloudy 47°F8°C 38°F3°C 71% E 8 mphE 13 kph 10.0 miles16.1 km 30.18 in1022 hPa 0.00 in0.00 mm --
01:53 01:53 Mostly Cloudy Mostly Cloudy 47°F8°C 39°F4°C 74% ENE 6 mphENE 9 kph 10.0 miles16.1 km 30.18 in1022 hPa 0.00 in0.00 mm --
00:53 00:53 Mostly Cloudy Mostly Cloudy 47°F8°C 40°F4°C 77% E 6 mphE 9 kph 10.0 miles16.1 km 30.18 in1022 hPa 0.00 in0.00 mm --